This demonstration page uses our WeatherBlox Daily Observations layout. Learn more.

Left ArrowRight Arrow

34.74481, -87.66753

Hourly Observations for July 30, 2019

Temp ( °F °C ) Dew Point ( °F °C ) Humidity (%) Winds ( mph kmh ) Pressure ( in mb ) Visibility ( mi km ) Precip ( " mm )
12:53 am 00:53 Clear 76 24.4 70 21.1 82 82 NW 3 6 30.01 1016 10 16 0.00 0.00
1:53 am 01:53 Clear 73 22.8 70 21.1 90 90 Calm 29.99 1016 10 16 0.00 0.00
2:53 am 02:53 Clear 74 23.3 70 21.1 88 88 Calm 29.99 1016 10 16 0.00 0.00
3:53 am 03:53 Mostly Clear 74 23.3 70 21.1 88 88 WSW 5 7 29.99 1016 10 16 0.00 0.00
4:53 am 04:53 Clear 74 23.3 70 21.1 88 88 SW 3 6 30.00 1016 10 16 0.00 0.00
5:53 am 05:53 Mostly Clear 74 23.3 70 21.1 88 88 W 5 7 30.01 1016 10 16 0.00 0.00
6:53 am 06:53 Cloudy 74 23.3 70 21.1 88 88 S 3 6 30.03 1017 10 16 0.00 0.00
7:53 am 07:53 Cloudy 75 23.9 70 21.1 84 84 NNW 5 7 30.04 1017 10 16 0.00 0.00
8:53 am 08:53 Cloudy 76 24.4 70 21.1 82 82 S 3 6 30.04 1017 10 16 0.00 0.00
9:30 am 09:30 Cloudy 75 23.9 72 22.2 90 90 SSE 5 7 30.05 1018 10 16 0.00 0.00
9:53 am 09:53 Mostly Cloudy 76 24.4 70 21.1 82 82 ESE 3 6 30.05 1018 10 16 0.00 0.00
10:53 am 10:53 Mostly Cloudy 79 26.1 70 21.1 74 74 SSW 3 6 30.05 1018 10 16 0.00 0.00
11:53 am 11:53 Cloudy 80 26.7 71 21.7 74 74 S 6 9 30.05 1018 10 16 0.00 0.00
12:27 pm 12:27 Mostly Cloudy 83 28.3 71 21.7 67 67 WSW 6 9 30.04 1017 10 16 0.00 0.00
2:53 pm 14:53 Partly Cloudy 88 31.1 67 19.4 50 50 W 8 13 29.99 1016 10 16 0.00 0.00
3:53 pm 15:53 Mostly Cloudy 88 31.1 69 20.6 54 54 W 9 15 29.98 1015 10 16 0.00 0.00
4:53 pm 16:53 Mostly Sunny 87 30.6 69 20.6 55 55 SSW 7 11 29.97 1015 10 16 0.00 0.00
5:53 pm 17:53 Cloudy 89 31.7 69 20.6 52 52 W 8 13 29.96 1015 10 16 0.00 0.00
6:53 pm 18:53 Mostly Cloudy 87 30.6 70 21.1 57 57 SW 6 9 29.97 1015 10 16 0.00 0.00
7:53 pm 19:53 Partly Cloudy 80 26.7 73 22.8 79 79 ESE 5 7 29.98 1015 10 16 0.00 0.00
8:53 pm 20:53 Clear 78 25.6 74 23.3 87 87 Calm 30.00 1016 10 16 0.00 0.00
9:53 pm 21:53 Partly Cloudy 77 25 73 22.8 88 88 Calm 30.02 1017 10 16 0.00 0.00
10:53 pm 22:53 Clear 78 25.6 73 22.8 85 85 Calm 30.02 1017 10 16 0.00 0.00
11:53 pm 23:53 Partly Cloudy 76 24.4 73 22.8 91 91 Calm 30.03 1017 10 16 0.00 0.00

Powered by AerisWeather